[[{"header":{"parameterUnit":"m.s-1","parameterCategory":1,"la1":30.2991,"la2":30.254,"lo1":-89.0895,"lo2":-89.0444,"dy":0.0017,"dx":0.0017,"nx":28,"ny":28,"refTime":"2024-02-20T03:00:00:Z","depth":0,"parameterNumber":2,"parameterNumberName":"U-component_of_WINDS"},"data":[0,0,0,0,0,0,0,0,0,0,0,0,0,0,0,0,0,0,0,0,0,0,0,0,0,0,0,0,0,0,0,0,0,0,0,0,0,0,0,0,0,0,0,0,0,0,0,0,0,0,0,0,0,0,0,0,0,0,1.3525,1.3526,0,1.3688,1.369,1.3692,1.3736,1.3735,1.3734,1.3733,1.3904,1.391,1.3915,0,0,0,0,0,0,0,0,0,0,0,0,0,1.3252,1.3257,1.3524,1.3526,1.3528,1.3688,1.369,1.3693,1.3737,1.3735,1.3734,1.3733,1.3903,1.3909,1.3916,0,0,0,0,0,0,0,0,0,0,0,0,0,1.3389,1.3259,1.3524,1.357,1.3575,1.3688,1.369,1.3693,1.3737,1.3735,1.3734,1.3732,1.3901,1.3908,1.3917,1.3996,0,0,1.3942,1.3945,0,0,0,0,0,0,0,0,1.3381,1.3399,1.3561,1.3567,1.3573,1.369,1.3657,1.3795,1.3737,1.3676,1.3733,1.3732,1.3835,1.3848,1.3882,1.4004,1.4012,1.3942,1.3947,1.3951,1.3953,0,0,0,0,0,0,0,1.3371,1.3392,1.3589,1.3563,1.3571,1.3583,1.3601,1.3683,1.3761,1.3681,1.3684,1.3703,1.3838,1.3874,1.3886,1.4014,1.3942,1.3949,1.3954,1.3958,1.421,1.4211,0,0,0,0,0,0,1.3354,1.3384,1.3584,1.3594,1.3471,1.3589,1.3609,1.3654,1.3761,1.3775,1.3704,1.3704,1.3861,1.3877,1.3893,1.3992,1.3951,1.3958,1.3963,1.4208,1.421,1.4212,0,0,0,0,0,0,1.3348,1.3371,1.3578,1.349,1.3517,1.3595,1.3646,1.3658,1.3695,1.3778,1.3793,1.3727,1.386,1.3881,1.397,1.3999,1.3962,1.3969,1.4206,1.4209,1.4211,1.4192,0,0,0,0,0,0,1.334,1.3369,1.3399,1.349,1.3522,1.3651,1.3648,1.3663,1.3708,1.371,1.3803,1.3817,1.3861,1.3957,1.3978,1.401,1.3976,1.4204,1.4207,1.421,1.4191,1.4194,1.4197,0,0,0,0,0,1.333,1.3388,1.34,1.3424,1.3561,1.3652,1.3671,1.3719,1.371,1.3742,1.3796,1.3814,1.3993,1.3966,1.399,1.4024,1.4202,1.4206,1.421,1.4189,1.4193,1.4197,0,0,0,0,0,0,1.3299,1.3401,1.3416,1.3505,1.3569,1.366,1.3701,1.3721,1.3791,1.379,1.3848,1.3868,1.3953,1.3998,1.3966,1.4107,1.4098,1.4107,1.4074,1.4079,1.4082,1.4069,1.3983,0,0,0,0,0,1.3302,1.3367,1.3453,1.3524,1.3555,1.3622,1.3664,1.3695,1.3765,1.3793,1.3853,1.3921,1.3993,1.4038,1.4109,1.4198,1.4219,1.4233,1.4236,1.4239,1.4245,1.4296,1.4303,1.4225,1.4225,1.4225,0,0,1.331,1.3374,1.3411,1.3519,1.3573,1.3639,1.3645,1.3715,1.3765,1.3804,1.3891,1.3938,1.4017,1.4106,1.4149,1.4146,1.4272,1.4244,1.4245,1.4251,1.43,1.4308,1.4314,1.4228,1.4228,1.4227,0,0,1.3358,1.3413,1.3477,1.3531,1.3612,1.3657,1.3672,1.376,1.3792,1.388,1.391,1.3971,1.4093,1.4148,1.4192,1.4262,1.4281,1.4283,1.4299,1.4347,1.4354,1.4359,1.4383,1.4391,1.429,1.429,1.429,0,1.3358,1.3458,1.3508,1.3577,1.3623,1.3661,1.3727,1.3777,1.3877,1.3909,1.3905,1.4058,1.4114,1.4217,1.4233,1.4268,1.4288,1.4272,1.4348,1.4355,1.4361,1.4384,1.4393,1.429,1.429,1.429,1.429,0,1.3453,1.3523,1.3565,1.366,1.3712,1.3779,1.3839,1.3886,1.3913,1.3958,1.4047,1.4116,1.4201,1.4228,1.4256,1.4335,1.433,1.4337,1.4329,1.4367,1.439,1.4399,1.4289,1.4289,1.4289,1.4289,0,0,1.3485,1.3607,1.3622,1.3665,1.3758,1.3813,1.3882,1.3964,1.4002,1.4071,1.413,1.4232,1.4238,1.4288,1.4323,1.4366,1.4415,1.4367,1.437,1.4373,1.4506,1.4499,1.4509,1.4429,1.4431,1.4433,1.4499,0,1.3544,1.3667,1.3715,1.3816,1.388,1.3917,1.3978,1.4041,1.4086,1.4148,1.4197,1.4268,1.4272,1.4302,1.4346,1.44,1.4443,1.4396,1.4485,1.4488,1.4463,1.4521,1.4515,1.4573,1.4508,1.451,1.4511,0,1.3629,1.3696,1.3804,1.3888,1.3917,1.397,1.4049,1.4108,1.4182,1.4211,1.4266,1.4298,1.4373,1.4361,1.4464,1.4431,1.4471,1.4503,1.4507,1.4516,1.4501,1.4531,1.4593,1.4601,1.4526,1.4525,1.4524,0,1.3639,1.3758,1.3838,1.3874,1.3975,1.4011,1.4055,1.4127,1.4173,1.4243,1.4274,1.4351,1.4394,1.4453,1.4506,1.4492,1.4604,1.4597,1.4631,1.4629,1.4652,1.4649,1.472,1.4679,1.4679,1.4679,1.4679,0,1.3699,1.3763,1.3844,1.3892,1.3965,1.402,1.4091,1.4137,1.4201,1.426,1.4298,1.4353,1.4419,1.4482,1.4524,1.4603,1.4623,1.4648,1.4658,1.4644,1.4641,1.467,1.4667,1.4681,1.4681,1.468,1.468,0,1.3723,1.378,1.3869,1.3957,1.3981,1.4031,1.4107,1.4156,1.4202,1.4276,1.4297,1.4369,1.4446,1.4504,1.4604,1.4632,1.4716,1.4727,1.469,1.4695,1.4726,1.4722,1.4817,1.4832,1.4781,1.4782,1.4782,0,1.3757,1.3807,1.39,1.3942,1.3985,1.4052,1.41,1.4156,1.4203,1.4291,1.433,1.4409,1.4475,1.4596,1.4658,1.4735,1.4747,1.4776,1.4759,1.4743,1.4747,1.4743,1.4748,1.4777,1.4778,1.4778,1.4778,0,1.381,1.3836,1.3902,1.3978,1.4033,1.4096,1.416,1.4192,1.426,1.4312,1.439,1.4441,1.4543,1.4621,1.4704,1.475,1.4775,1.4783,1.4795,1.478,1.4756,1.4768,1.4695,1.478,1.478,1.478,1.478,1.4779,1.384,1.3886,1.3959,1.4031,1.4085,1.4144,1.4194,1.4246,1.4312,1.4398,1.4428,1.4508,1.4581,1.4695,1.4742,1.4807,1.4807,1.4825,1.4829,1.4832,1.483,1.4746,1.4822,1.4822,1.4822,1.4822,1.4823,0,1.3894,1.3943,1.4009,1.4097,1.4154,1.4173,1.4244,1.4291,1.4361,1.4426,1.449,1.458,1.4656,1.4725,1.4804,1.4842,1.4856,1.4861,1.4858,1.4869,1.4826,1.4807,1.4849,1.4849,1.4849,1.4849,1.4849,1.4849,1.3929,1.4008,1.4042,1.4148,1.4197,1.4275,1.4314,1.4369,1.4421,1.452,1.4583,1.4627,1.4694,1.4778,1.4849,1.4867,1.4894,1.4896,1.4917,1.4875,1.4872,1.4868,1.4851,1.4902,1.4902,1.4955,1.4955,1.4956]},{"header":{"parameterUnit":"m.s-1","parameterCategory":1,"la1":30.2991,"la2":30.254,"lo1":-89.0895,"lo2":-89.0444,"dy":0.0017,"dx":0.0017,"nx":28,"ny":28,"refTime":"2024-02-20T03:00:00:Z","depth":0,"parameterNumber":3,"parameterNumberName":"V-component_of_WINDS"},"data":[0,0,0,0,0,0,0,0,0,0,0,0,0,0,0,0,0,0,0,0,0,0,0,0,0,0,0,0,0,0,0,0,0,0,0,0,0,0,0,0,0,0,0,0,0,0,0,0,0,0,0,0,0,0,0,0,0,0,3.1642,3.1642,0,3.166,3.166,3.1661,3.1649,3.1649,3.1648,3.1648,3.1664,3.1665,3.1666,0,0,0,0,0,0,0,0,0,0,0,0,0,3.1595,3.1596,3.1642,3.1642,3.1643,3.166,3.1661,3.1661,3.1649,3.1649,3.1648,3.1648,3.1664,3.1665,3.1666,0,0,0,0,0,0,0,0,0,0,0,0,0,3.1614,3.1596,3.1642,3.1639,3.1639,3.166,3.1661,3.1661,3.165,3.1649,3.1648,3.1647,3.1664,3.1665,3.1666,3.1691,0,0,3.1671,3.1671,0,0,0,0,0,0,0,0,3.1613,3.1616,3.1639,3.1639,3.1639,3.1652,3.165,3.1671,3.165,3.1646,3.1648,3.1647,3.1661,3.1662,3.1667,3.1691,3.1692,3.1671,3.1671,3.1672,3.1672,0,0,0,0,0,0,0,3.1612,3.1615,3.1649,3.164,3.164,3.1636,3.1638,3.1654,3.1657,3.1646,3.1645,3.1647,3.166,3.1666,3.1668,3.1692,3.1671,3.1672,3.1673,3.1673,3.1736,3.1736,0,0,0,0,0,0,3.1611,3.1614,3.1649,3.165,3.1624,3.1637,3.164,3.1649,3.1657,3.1658,3.1648,3.1647,3.1664,3.1666,3.1668,3.1696,3.1672,3.1673,3.1674,3.1735,3.1736,3.1737,0,0,0,0,0,0,3.161,3.1614,3.1648,3.1632,3.1636,3.1639,3.1649,3.1649,3.1655,3.1659,3.1659,3.1653,3.1663,3.1666,3.1685,3.1696,3.1674,3.1675,3.1734,3.1735,3.1736,3.1752,0,0,0,0,0,0,3.1609,3.1614,3.1624,3.1632,3.1637,3.1665,3.165,3.165,3.1658,3.1656,3.1664,3.1664,3.1663,3.1683,3.1686,3.1698,3.1676,3.1733,3.1734,3.1736,3.1751,3.1754,3.1757,0,0,0,0,0,3.1607,3.1628,3.1625,3.1629,3.165,3.1666,3.1669,3.1667,3.1659,3.1668,3.167,3.1664,3.1695,3.1685,3.1689,3.1701,3.1732,3.1734,3.1736,3.1749,3.1753,3.1757,0,0,0,0,0,0,3.1621,3.1629,3.1626,3.165,3.1657,3.1664,3.1676,3.1672,3.1682,3.168,3.1677,3.1679,3.1698,3.1702,3.169,3.1724,3.1712,3.1714,3.1721,3.1725,3.1728,3.1726,3.1678,0,0,0,0,0,3.1627,3.164,3.1646,3.1667,3.1671,3.1673,3.168,3.1679,3.1686,3.1689,3.1693,3.17,3.1711,3.1718,3.1729,3.1751,3.1752,3.1761,3.1764,3.1767,3.1769,3.1779,3.1783,3.1743,3.1743,3.1743,0,0,3.1639,3.1645,3.1654,3.167,3.1676,3.1689,3.1676,3.1691,3.17,3.1691,3.1709,3.1712,3.1719,3.174,3.1749,3.1743,3.178,3.1769,3.1771,3.1772,3.1782,3.1786,3.1789,3.1744,3.1744,3.1743,0,0,3.1667,3.1674,3.1691,3.1697,3.1706,3.1707,3.1711,3.1718,3.172,3.1738,3.1731,3.1742,3.1762,3.1767,3.1772,3.1801,3.1795,3.1804,3.1819,3.183,3.1833,3.1836,3.1845,3.1848,3.1807,3.1807,3.1807,0,3.1681,3.1701,3.17,3.1715,3.1722,3.1715,3.1731,3.1737,3.1749,3.1753,3.1746,3.177,3.1774,3.1795,3.1802,3.1807,3.181,3.1803,3.1833,3.1836,3.1838,3.1846,3.185,3.1808,3.1807,3.1807,3.1807,0,3.1717,3.1731,3.1743,3.1755,3.1763,3.1778,3.1779,3.1787,3.1784,3.1786,3.1803,3.1808,3.1819,3.1824,3.1822,3.1844,3.184,3.1833,3.1821,3.1843,3.1851,3.1854,3.1809,3.1809,3.1808,3.1808,0,0,3.1754,3.1764,3.1769,3.1773,3.1782,3.1792,3.1807,3.1818,3.1824,3.1832,3.1843,3.186,3.1853,3.1859,3.1857,3.1867,3.1887,3.1858,3.1858,3.1862,3.191,3.1915,3.1918,3.1884,3.1884,3.1885,3.1909,0,3.1782,3.1808,3.1807,3.1831,3.1843,3.1836,3.1849,3.1855,3.1856,3.1866,3.1867,3.1878,3.1869,3.1872,3.1882,3.1883,3.1897,3.1881,3.1893,3.1893,3.189,3.1923,3.1927,3.195,3.1913,3.1913,3.1913,0,3.1818,3.1827,3.1852,3.1858,3.1863,3.1874,3.1883,3.1893,3.1899,3.1899,3.1905,3.1902,3.1915,3.1903,3.1921,3.1911,3.1915,3.1917,3.1917,3.1917,3.1904,3.1922,3.1958,3.1961,3.1919,3.1918,3.1918,0,3.184,3.1859,3.1876,3.188,3.1888,3.1896,3.1899,3.1905,3.1911,3.1919,3.1922,3.1932,3.1937,3.1943,3.1942,3.1934,3.1959,3.1948,3.1959,3.1959,3.1964,3.1963,3.1999,3.1969,3.1969,3.1969,3.1969,0,3.1871,3.1886,3.1886,3.1897,3.1913,3.1911,3.1927,3.193,3.1935,3.1944,3.1939,3.1948,3.1947,3.1955,3.1954,3.1968,3.1971,3.197,3.197,3.197,3.197,3.1972,3.197,3.197,3.1969,3.1969,3.1969,0,3.1899,3.19,3.1917,3.1923,3.1925,3.1936,3.1941,3.195,3.1951,3.1963,3.1966,3.1967,3.1977,3.1976,3.1988,3.1987,3.2004,3.2002,3.2002,3.2001,3.2011,3.201,3.2049,3.2053,3.2022,3.2022,3.2022,0,3.1917,3.1929,3.1935,3.1942,3.1946,3.1956,3.1962,3.1961,3.1967,3.1975,3.1983,3.1992,3.2,3.2016,3.2017,3.2025,3.2023,3.2036,3.2024,3.2024,3.2021,3.202,3.2021,3.2038,3.2038,3.2039,3.2039,0,3.195,3.1949,3.1959,3.1968,3.1975,3.1982,3.1989,3.1994,3.1993,3.2001,3.2011,3.2017,3.2028,3.2037,3.2045,3.2048,3.2043,3.2043,3.2045,3.2045,3.2044,3.2043,3.2007,3.2041,3.2041,3.2041,3.2041,3.2041,3.1972,3.1981,3.1987,3.1997,3.2002,3.2008,3.2017,3.2018,3.2027,3.2036,3.2035,3.2046,3.2051,3.2061,3.2064,3.2072,3.2067,3.2072,3.2073,3.2073,3.2074,3.2044,3.2074,3.2074,3.2074,3.2074,3.2074,0,3.2003,3.2006,3.2016,3.2025,3.2032,3.2028,3.2034,3.2041,3.2051,3.2056,3.2063,3.2074,3.2083,3.2085,3.2093,3.2099,3.2097,3.2101,3.21,3.21,3.2079,3.2075,3.2103,3.2103,3.2103,3.2103,3.2103,3.2103,3.202,3.2035,3.2035,3.2052,3.2055,3.2066,3.207,3.2075,3.2079,3.2091,3.2098,3.21,3.2103,3.2111,3.2119,3.2119,3.2122,3.2126,3.2126,3.2105,3.2102,3.2099,3.2096,3.2127,3.2127,3.2147,3.2147,3.2147]}]]